Overview Statistics Trail Chart Weather Telemetry Raw packets
 

This is the latest recevied weather packets stored in our database for station/object KC1IUC-15. If no packets are shown the sender has not sent any weather packets the latest 10 day(s).

<< 103 104 105 106 107 108 109 >>
Time Temp. Humidity Pressure Rain* Wind** Luminosity Snow
1787838304 25° C 77% 1016.7 hPa 0 mm - 187 W/m² -
1787838004 25° C 77% 1016.7 hPa 0 mm - 224 W/m² -
1787837704 25° C 77% 1016.7 hPa 0 mm - 250 W/m² -
1787837404 25° C 78% 1016.7 hPa 0 mm - 226 W/m² -
1787837104 24.44° C 80% 1016.7 hPa 0 mm - 267 W/m² -
1787836804 24.44° C 81% 1016.7 hPa 0 mm - 156 W/m² -
1787836504 25° C 81% 1016.4 hPa 0 mm - 133 W/m² -
1787836209 24.44° C 82% 1016.4 hPa 0 mm - 292 W/m² -
1787835904 24.44° C 85% 1016.4 hPa 0 mm - 175 W/m² -
1787835604 23.33° C 87% 1016.7 hPa 0 mm - 155 W/m² -
1787835304 23.33° C 89% 1016.7 hPa 0 mm - 182 W/m² -
1787835004 23.33° C 89% 1016.4 hPa 0 mm - 105 W/m² -
1787834704 22.78° C 90% 1016.7 hPa 0 mm - 107 W/m² -
1787834404 22.78° C 92% 1016.7 hPa 0 mm - 100 W/m² -
1787834104 22.22° C 94% 1016.7 hPa 0 mm - 94 W/m² -
1787833804 22.22° C 97% 1016.7 hPa 0 mm - 79 W/m² -
1787833504 21.67° C 99% 1016.7 hPa 0 mm - 73 W/m² -
1787833204 21.11° C 99% 1016.4 hPa 0 mm - 70 W/m² -
1787832904 21.11° C 99% 1016.7 hPa 0 mm - 92 W/m² -
1787832604 20.56° C 98% 1016.7 hPa 0 mm - 85 W/m² -
1787832304 20° C 99% 1016.7 hPa 0 mm - 74 W/m² -
1787832004 20° C 99% 1016.7 hPa 0 mm - 74 W/m² -
1787831704 19.44° C 99% 1016.7 hPa 0 mm - 73 W/m² -
1787831404 19.44° C 99% 1016.7 hPa 0 mm - 58 W/m² -
1787831104 19.44° C 99% 1016.7 hPa 0 mm - 58 W/m² -

* Rain latest hour (hover to see other rain measurements)
** Current wind speed in m/s (hover to see current wind gust speed)